• In Uzbekistan
  • List of Countries
  • For 7 days
  • Water Temperature
  • Satellite Maps
  • Weather Map
  • Weather Widgets
  • user-avatar
    Login

    Hourly Weather Paralia

    Today, 23 November, Thursday

    Time Temperature Precipitation Wind Pressure Humidity
    00:00 +11°C° 0 mm 1 mps 752 mmHg 55%
    01:00 +11°C° 0 mm 1 mps 752 mmHg 54%
    02:00 +10°C° 0 mm 1 mps 752 mmHg 55%
    03:00 +10°C° 0 mm 1 mps 752 mmHg 55%
    04:00 +10°C° 0 mm 1 mps 751 mmHg 55%
    05:00 +10°C° 0 mm 1 mps 752 mmHg 56%
    06:00 +11°C° 0 mm 1 mps 752 mmHg 57%
    07:00 +11°C° 0 mm 1 mps 752 mmHg 60%
    08:00 +13°C° 0 mm 1 mps 752 mmHg 55%
    09:00 +15°C° 0 mm 1 mps 752 mmHg 51%
    10:00 +18°C° 0 mm 1 mps 752 mmHg 47%
    11:00 +19°C° 0 mm 1 mps 752 mmHg 46%
    12:00 +19°C° 0 mm 1 mps 752 mmHg 46%
    13:00 +19°C° 0 mm 2 mps 752 mmHg 48%
    14:00 +18°C° 0 mm 1 mps 752 mmHg 54%
    15:00 +16°C° 0 mm 1 mps 752 mmHg 60%
    16:00 +15°C° 0 mm 1 mps 752 mmHg 66%
    17:00 +14°C° 0 mm 1 mps 752 mmHg 70%
    18:00 +13°C° 0 mm 1 mps 752 mmHg 74%
    19:00 +13°C° 0 mm 1 mps 752 mmHg 78%
    20:00 +12°C° 0 mm 1 mps 752 mmHg 78%
    21:00 +12°C° 0 mm 1 mps 753 mmHg 78%
    22:00 +12°C° 0 mm 1 mps 753 mmHg 78%
    23:00 +12°C° 0 mm 1 mps 753 mmHg 78%

    Tomorrow, 24 November, Friday

    Time Temperature Precipitation Wind Pressure Humidity
    00:00 +12°C° 0 mm 1 mps 753 mmHg 77%
    01:00 +12°C° 0 mm 1 mps 753 mmHg 77%
    02:00 +11°C° 0 mm 1 mps 752 mmHg 76%
    03:00 +11°C° 0 mm 1 mps 752 mmHg 75%
    04:00 +11°C° 0 mm 1 mps 752 mmHg 74%
    05:00 +11°C° 0 mm 1 mps 752 mmHg 73%
    06:00 +11°C° 0 mm 1 mps 752 mmHg 72%
    07:00 +11°C° 0 mm 1 mps 752 mmHg 71%
    08:00 +13°C° 0 mm 1 mps 752 mmHg 65%
    09:00 +15°C° 0 mm 1 mps 753 mmHg 59%
    10:00 +19°C° 0 mm 1 mps 753 mmHg 53%
    11:00 +19°C° 0 mm 1 mps 753 mmHg 52%
    12:00 +19°C° 0 mm 1 mps 752 mmHg 51%
    13:00 +20°C° 0 mm 1 mps 752 mmHg 51%
    14:00 +18°C° 0 mm 1 mps 752 mmHg 57%
    15:00 +16°C° 0 mm 1 mps 752 mmHg 64%
    16:00 +15°C° 0 mm 1 mps 752 mmHg 71%
    17:00 +14°C° 0 mm 1 mps 752 mmHg 76%
    18:00 +14°C° 0 mm 1 mps 752 mmHg 80%
    19:00 +13°C° 0 mm 1 mps 752 mmHg 85%
    20:00 +13°C° 0 mm 1 mps 752 mmHg 85%
    21:00 +12°C° 0 mm 1 mps 752 mmHg 86%
    22:00 +12°C° 0 mm 1 mps 752 mmHg 87%
    23:00 +12°C° 0 mm 1 mps 752 mmHg 86%

    Day after tomorrow, 25 November, Saturday

    Time Temperature Precipitation Wind Pressure Humidity
    00:00 +12°C° 0 mm 1 mps 752 mmHg 86%
    01:00 +12°C° 0 mm 1 mps 752 mmHg 86%
    02:00 +11°C° 0 mm 1 mps 752 mmHg 86%
    03:00 +11°C° 0 mm 1 mps 752 mmHg 86%
    04:00 +11°C° 0 mm 1 mps 752 mmHg 86%
    05:00 +11°C° 0 mm 1 mps 752 mmHg 85%
    06:00 +11°C° 0 mm 1 mps 752 mmHg 84%
    07:00 +11°C° 0 mm 1 mps 752 mmHg 84%
    08:00 +13°C° 0 mm 1 mps 752 mmHg 75%
    09:00 +15°C° 0 mm 1 mps 752 mmHg 66%
    10:00 +18°C° 0 mm 1 mps 753 mmHg 58%
    11:00 +18°C° 0 mm 1 mps 752 mmHg 55%
    12:00 +19°C° 0 mm 1 mps 752 mmHg 53%
    13:00 +19°C° 0 mm 1 mps 751 mmHg 51%
    14:00 +18°C° 0 mm 1 mps 751 mmHg 57%
    15:00 +16°C° 0 mm 1 mps 751 mmHg 63%
    16:00 +15°C° 0 mm 1 mps 751 mmHg 69%
    17:00 +14°C° 0 mm 1 mps 751 mmHg 74%
    18:00 +13°C° 0 mm 1 mps 751 mmHg 79%
    19:00 +11°C° 0 mm 0 mps 751 mmHg 84%
    20:00 +12°C° 0 mm 1 mps 751 mmHg 85%
    21:00 +12°C° 0 mm 1 mps 752 mmHg 86%
    22:00 +11°C° 0 mm 1 mps 752 mmHg 87%
    23:00 +11°C° 0 mm 1 mps 752 mmHg 87%

    26 November, Sunday

    Time Temperature Precipitation Wind Pressure Humidity
    00:00 +11°C° 0 mm 1 mps 751 mmHg 87%
    01:00 +11°C° 0 mm 1 mps 751 mmHg 88%
    02:00 +11°C° 0 mm 1 mps 751 mmHg 88%
    03:00 +11°C° 0 mm 1 mps 751 mmHg 89%
    04:00 +11°C° 0 mm 1 mps 751 mmHg 89%
    05:00 +11°C° 0 mm 1 mps 751 mmHg 89%
    06:00 +11°C° 0 mm 1 mps 751 mmHg 89%
    07:00 +11°C° 0 mm 1 mps 751 mmHg 89%
    08:00 +13°C° 0 mm 1 mps 751 mmHg 81%
    09:00 +15°C° 0 mm 1 mps 751 mmHg 73%
    10:00 +18°C° 0 mm 1 mps 751 mmHg 64%
    11:00 +18°C° 0 mm 1 mps 750 mmHg 63%
    12:00 +18°C° 0 mm 2 mps 750 mmHg 61%
    13:00 +18°C° 0 mm 2 mps 749 mmHg 60%
    14:00 +17°C° 0 mm 2 mps 749 mmHg 66%
    15:00 +16°C° 0 mm 2 mps 749 mmHg 72%
    16:00 +15°C° 0 mm 1 mps 749 mmHg 78%
    17:00 +14°C° 0 mm 2 mps 749 mmHg 81%
    18:00 +14°C° 0 mm 2 mps 749 mmHg 84%
    19:00 +13°C° 0 mm 2 mps 749 mmHg 87%
    20:00 +13°C° 0.7 mm 2 mps 748 mmHg 88%
    21:00 +13°C° 0.7 mm 2 mps 748 mmHg 88%
    22:00 +13°C° 0.7 mm 2 mps 748 mmHg 88%
    23:00 +14°C° 1.1 mm 2 mps 747 mmHg 89%

    27 November, Monday

    Time Temperature Precipitation Wind Pressure Humidity
    00:00 +14°C° 1.1 mm 2 mps 747 mmHg 89%
    01:00 +13°C° 1.1 mm 3 mps 746 mmHg 90%
    02:00 +14°C° 2.5 mm 2 mps 745 mmHg 91%
    03:00 +14°C° 2.5 mm 2 mps 745 mmHg 92%
    04:00 +14°C° 2.5 mm 2 mps 744 mmHg 93%
    05:00 +13°C° 1.4 mm 2 mps 744 mmHg 93%
    06:00 +13°C° 1.4 mm 2 mps 744 mmHg 92%
    07:00 +13°C° 1.4 mm 2 mps 744 mmHg 92%
    08:00 +13°C° 0.7 mm 3 mps 744 mmHg 86%
    09:00 +14°C° 0.7 mm 3 mps 745 mmHg 80%
    10:00 +14°C° 0.7 mm 4 mps 745 mmHg 74%
    11:00 +14°C° 0.7 mm 4 mps 744 mmHg 74%
    12:00 +14°C° 0.7 mm 5 mps 744 mmHg 74%
    13:00 +14°C° 0.7 mm 5 mps 744 mmHg 74%
    14:00 +13°C° 0.4 mm 4 mps 744 mmHg 77%
    15:00 +12°C° 0.4 mm 4 mps 744 mmHg 80%
    16:00 +12°C° 0.4 mm 3 mps 744 mmHg 83%
    17:00 +11°C° 0.2 mm 3 mps 745 mmHg 84%
    18:00 +11°C° 0.2 mm 3 mps 745 mmHg 85%
    19:00 +11°C° 0.2 mm 3 mps 745 mmHg 86%
    20:00 +11°C° 0.2 mm 3 mps 746 mmHg 87%
    21:00 +11°C° 0.2 mm 3 mps 746 mmHg 87%
    22:00 +11°C° 0.2 mm 3 mps 746 mmHg 88%
    23:00 +11°C° 0.1 mm 3 mps 746 mmHg 88%

    28 November, Tuesday

    Time Temperature Precipitation Wind Pressure Humidity
    00:00 +11°C° 0.1 mm 3 mps 746 mmHg 88%
    01:00 +11°C° 0.1 mm 3 mps 747 mmHg 88%
    02:00 +11°C° 0.1 mm 3 mps 747 mmHg 88%
    03:00 +11°C° 0.1 mm 3 mps 747 mmHg 87%
    04:00 +10°C° 0.1 mm 3 mps 747 mmHg 87%
    05:00 +10°C° 0 mm 3 mps 747 mmHg 87%
    06:00 +10°C° 0 mm 3 mps 747 mmHg 86%
    07:00 +10°C° 0 mm 2 mps 747 mmHg 86%
    08:00 +11°C° 0.1 mm 3 mps 747 mmHg 79%
    09:00 +12°C° 0.1 mm 3 mps 748 mmHg 73%
    10:00 +13°C° 0.1 mm 3 mps 748 mmHg 66%
    11:00 +13°C° 0.1 mm 3 mps 747 mmHg 65%
    12:00 +13°C° 0.1 mm 3 mps 747 mmHg 63%
    13:00 +13°C° 0.1 mm 3 mps 747 mmHg 61%
    14:00 +12°C° 0.1 mm 3 mps 747 mmHg 65%
    15:00 +12°C° 0.1 mm 3 mps 747 mmHg 69%
    16:00 +11°C° 0.1 mm 3 mps 747 mmHg 73%
    17:00 +10°C° 0 mm 2 mps 748 mmHg 75%
    18:00 +10°C° 0 mm 2 mps 748 mmHg 77%
    19:00 +9°C° 0 mm 2 mps 748 mmHg 79%
    20:00 +9°C° 0 mm 2 mps 749 mmHg 80%
    21:00 +9°C° 0 mm 2 mps 749 mmHg 80%
    22:00 +9°C° 0 mm 2 mps 749 mmHg 81%
    23:00 +9°C° 0 mm 1 mps 749 mmHg 82%
    Show more